User: anonymous   Login
Location: Limerick
(52.6800°N, 8.6400°W)
Time: 06:15:37
(UTC+01:00)
Language:

Sapphire - Orbit

View from above orbital plane
View from above orbital plane
View from above satellite
View from above satellite

Ground track
Ground track

The orbit data is extracted from the following two-line orbital elements,

1 26932U 01043D   16120.37321069  .00000003  00000-0  33051-4 0  9990
2 26932  67.0558  80.6077 0009142 265.7438  94.2618 14.30208335761197
Epoch (UTC): 29 April 2016 08:57:25
Eccentricity: 0.0009142
inclination: 67.0558°
perigee height: 784 km
apogee height: 797 km
right ascension of ascending node: 80.6077°
argument of perigee: 265.7438°
revolutions per day: 14.30208335
mean anomaly at epoch: 94.2618°
orbit number at epoch: 76119

The dashed part of the orbit path shows where the satellite is in the earth's shadow,  

DLR